Location: Peebles
(55.6412°N, 3.1714°W)
Time: 05:47:20
(UTC+01:00)

NOAA 16 DEB - Pass Details

Date: 09 July 2022
Orbit: 836 x 886 km, 98.9° (Epoch: 10 August)

Event Time Altitude Azimuth Distance (km) Brightness Sun altitude
Exits shadow 00:20:34 - 211° (SSW) 3,016 ? -11.0°
Reaches altitude 10° 00:22:24 10° 222° (SW) 2,449 ? -11.1°
Maximum altitude 00:26:29 21° 272° (W) 1,789 ? -11.2°
Drops below altitude 10° 00:30:36 10° 321° (NW) 2,471 ? -11.3°
Sets 00:33:34 0° 337° (NNW) 3,418 ? -11.4°
